Date,TemperatureHighF,TemperatureAvgF,TemperatureLowF,DewpointHighF,DewpointAvgF,DewpointLowF,HumidityHigh,HumidityAvg,HumidityLow,PressureMaxIn,PressureMinIn,WindSpeedMaxMPH,WindSpeedAvgMPH,GustSpeedMaxMPH,PrecipitationSumIn
2013-3-17,76.7,70.0,62.5,58.3,51.3,43.1,53,52,49,29.29,28.79,0,0,0,0.00
2013-3-18,63.5,58.7,46.4,44.0,38.9,25.7,49,48,44,29.14,28.65,0,0,0,0.00
2013-3-19,45.5,35.0,25.1,40.6,18.1,11.0,95,51,42,30.32,29.08,5,1,23,0.08
2013-3-20,25.0,20.3,13.5,17.2,8.7,2.8,76,61,45,30.43,30.24,8,5,24,0.00
2013-3-21,33.6,22.2,10.4,17.5,11.0,4.7,79,63,45,30.24,30.07,4,2,14,0.00
2013-3-22,37.3,28.5,17.9,24.4,18.2,13.4,84,66,47,30.16,30.08,4,2,11,0.00
2013-3-23,37.4,32.5,25.8,28.1,23.7,18.6,93,72,49,30.21,30.07,11,2,12,0.00
2013-3-24,30.0,28.3,26.7,27.3,26.0,24.4,95,91,80,30.11,29.97,17,3,18,0.00
2013-3-25,35.7,30.2,26.9,26.3,23.9,20.6,96,78,57,30.34,30.05,19,4,19,0.09
2013-3-26,39.2,29.9,21.7,24.3,21.1,17.6,84,71,50,30.43,30.34,13,2,13,0.01
2013-3-27,45.6,34.4,22.4,28.8,24.6,19.1,89,69,46,30.43,30.32,12,2,13,0.00
2013-3-28,55.4,41.6,28.8,36.2,30.6,25.4,88,67,44,30.39,30.27,16,3,17,0.00
2013-3-29,62.7,47.4,32.3,38.5,33.7,29.4,89,62,35,30.33,30.17,12,2,13,0.00
2013-3-30,56.6,48.2,44.5,50.7,43.1,34.4,96,83,62,30.16,29.91,10,2,11,0.11
2013-3-31,52.0,42.4,32.7,46.2,33.8,19.1,97,74,36,30.16,29.93,20,4,22,0.01
2013-4-1,39.4,29.6,22.2,20.8,18.1,14.9,78,63,43,30.38,30.15,16,3,17,0.00
2013-4-2,45.7,33.8,21.9,24.7,21.0,17.8,86,62,35,30.43,30.36,14,2,14,0.00
2013-4-3,51.1,35.3,25.3,24.1,21.1,18.5,80,59,32,30.49,30.33,13,2,13,0.00
2013-4-4,62.9,49.5,32.4,40.9,31.2,20.3,69,50,35,30.27,30.08,16,3,16,0.00
2013-4-5,60.5,47.4,31.2,36.5,31.1,26.8,86,56,32,30.25,29.88,17,4,17,0.00
2013-4-6,67.0,57.4,47.9,48.9,43.0,36.5,79,59,50,29.88,29.57,25,5,25,0.00
2013-4-7,68.5,49.7,33.7,46.3,40.4,32.1,96,73,43,29.98,29.70,16,3,16,0.00
2013-4-8,73.3,61.5,49.5,57.6,53.0,45.2,97,75,51,29.81,29.65,13,2,13,0.09
2013-4-9,65.2,53.2,42.1,61.8,51.7,40.9,98,95,83,29.90,29.72,18,4,21,1.67
2013-4-10,42.1,39.4,37.9,41.0,38.3,36.9,97,96,92,30.00,29.75,27,4,27,1.15
2013-4-11,40.9,37.9,34.7,39.6,36.5,32.6,98,95,82,29.79,29.65,15,2,17,0.24
2013-4-12,39.3,35.9,33.6,34.6,30.6,24.9,95,81,70,30.03,29.67,17,5,20,0.00
2013-4-13,51.9,37.2,29.8,34.6,27.5,23.9,81,69,48,30.07,29.94,16,4,18,0.00
2013-4-14,59.8,49.8,42.5,51.8,44.6,34.2,88,83,53,29.95,29.53,20,6,21,0.19
2013-4-15,45.1,41.5,36.9,39.4,33.4,27.6,89,73,53,30.12,29.74,16,2,19,0.02
2013-4-16,50.4,41.3,31.8,35.7,32.0,27.4,87,70,53,30.31,30.11,16,3,16,0.00
2013-4-17,48.1,42.7,39.2,47.3,39.8,35.4,98,90,67,30.26,29.60,28,5,28,3.00
2013-4-18,42.7,37.5,33.4,41.8,35.4,29.6,97,92,83,29.79,29.59,22,5,26,0.71
2013-4-19,43.5,35.7,29.6,29.7,26.3,24.1,86,70,48,30.14,29.75,29,7,31,0.00
2013-4-20,47.5,37.6,26.1,28.6,24.5,18.7,87,62,35,30.35,30.14,14,3,15,0.00
2013-4-21,66.0,46.4,41.1,43.2,34.1,28.6,72,63,37,30.32,30.11,19,5,19,0.00
2013-4-22,67.2,54.3,36.5,49.3,45.4,34.1,94,74,38,30.13,29.93,19,4,20,0.29
2013-4-23,41.9,36.2,32.1,34.3,30.0,26.6,92,79,57,30.19,30.08,22,5,22,0.01
2013-4-24,54.2,46.1,27.1,37.6,28.8,22.4,86,53,31,30.25,30.08,23,5,23,0.00
2013-4-25,62.1,51.7,33.1,37.4,33.1,25.8,85,51,34,30.33,30.18,12,4,20,0.00
2013-4-26,64.8,55.2,47.9,50.7,44.2,37.4,84,67,53,30.24,30.14,24,4,25,0.00
2013-4-27,67.3,53.7,43.1,50.2,46.2,41.8,96,77,51,30.26,30.02,13,2,15,0.00
2013-4-28,75.8,59.2,45.6,53.5,49.1,43.8,94,72,43,30.04,29.77,15,3,15,0.00
2013-4-29,82.0,67.3,53.7,62.9,56.5,50.4,90,70,46,29.81,29.56,14,2,15,0.00
2013-4-30,84.5,73.7,60.1,63.2,56.1,46.6,73,55,41,29.85,29.56,17,4,26,0.01
2013-5-1,60.1,50.5,39.5,48.4,41.5,34.8,84,72,58,30.34,29.85,28,5,29,0.00
2013-5-2,40.5,33.7,31.8,35.6,32.4,31.0,98,95,82,30.50,30.30,26,4,26,1.32
2013-5-3,33.1,31.9,31.5,32.3,31.3,31.0,98,98,97,30.42,30.14,18,2,19,0.26
2013-5-4,47.9,42.9,32.2,47.1,42.2,31.5,99,97,96,30.14,29.98,10,2,11,0.94
2013-5-5,61.5,49.8,42.5,55.6,47.4,41.4,97,92,79,30.17,30.09,11,2,12,0.02
2013-5-6,58.7,49.0,45.9,51.9,47.2,44.7,97,94,78,30.15,30.10,9,2,11,0.00
2013-5-7,78.3,69.9,54.2,54.5,49.3,45.1,85,50,33,30.13,29.97,11,1,15,0.00
2013-5-8,71.6,61.7,53.6,59.5,53.5,47.8,95,76,53,30.03,29.94,10,1,10,0.11
2013-5-9,69.5,59.5,53.6,60.2,56.6,51.0,98,90,68,29.95,29.85,13,2,18,0.67
2013-5-10,66.6,55.5,48.0,54.3,49.2,45.9,96,81,56,30.07,29.94,15,2,17,0.00
2013-5-11,56.9,52.5,45.0,48.9,32.5,21.1,85,50,27,30.25,29.99,26,4,32,0.00
2013-5-12,61.4,49.5,35.9,30.0,26.3,22.5,72,43,23,30.32,30.17,12,2,15,0.00
2013-5-13,69.8,48.8,42.0,48.1,33.5,28.0,70,56,41,30.19,30.10,11,1,12,0.00
2013-5-14,94.9,84.3,61.2,65.6,59.3,44.6,80,45,32,30.10,29.60,20,4,22,0.00
2013-5-15,84.3,74.0,62.9,55.8,46.5,36.5,56,39,20,29.91,29.73,17,2,18,0.00
2013-5-16,82.3,69.8,59.5,66.2,58.3,48.4,82,67,51,29.92,29.79,15,2,15,0.00
2013-5-17,81.0,70.3,61.8,64.7,61.8,59.9,94,76,53,29.93,29.83,15,2,15,0.00
2013-5-18,82.8,72.9,60.8,66.3,63.3,59.1,95,73,54,29.95,29.76,17,3,17,0.00
2013-5-19,85.3,68.8,60.2,67.7,63.3,59.3,97,84,55,29.80,29.51,26,3,27,1.24
2013-5-20,78.0,66.0,59.6,65.1,60.1,58.2,97,83,57,29.67,29.54,18,4,20,0.58
2013-5-21,68.8,60.1,56.6,58.6,52.9,48.1,96,78,59,29.70,29.57,11,1,13,0.01
2013-5-22,62.6,56.9,53.2,57.9,53.0,50.0,95,87,78,29.92,29.67,14,2,15,0.22
2013-5-23,70.1,58.2,51.8,54.4,49.8,44.7,96,76,44,30.29,29.91,14,2,15,0.01
2013-5-24,70.8,60.1,47.0,52.5,47.5,42.0,85,65,44,30.40,30.18,17,3,18,0.00
2013-5-25,60.0,53.8,50.8,53.6,50.4,46.6,96,89,62,30.29,30.14,22,5,23,1.09
2013-5-26,60.2,56.3,50.8,58.9,54.5,49.0,97,94,89,30.18,29.90,19,4,22,1.11
2013-5-27,78.2,65.1,57.7,64.7,61.1,56.8,99,88,59,30.04,29.71,35,2,35,0.71
2013-5-28,81.3,70.0,62.6,68.1,64.7,61.7,99,84,59,29.78,29.63,15,2,15,0.49
2013-5-29,80.7,70.0,63.5,71.6,65.2,59.0,96,85,70,29.80,29.66,17,2,18,0.04
2013-5-30,73.5,68.2,62.2,67.6,62.8,60.5,95,83,72,29.69,29.57,19,4,19,0.08
2013-5-31,75.8,68.7,61.1,65.5,62.9,59.5,97,83,67,29.72,29.63,18,3,18,0.00
2013-6-1,69.0,62.8,56.9,62.4,56.2,50.3,92,79,68,29.95,29.62,16,3,17,0.02
2013-6-2,67.3,57.7,51.3,51.4,47.7,44.3,85,70,49,30.11,29.94,15,2,16,0.00
2013-6-3,71.0,58.0,46.3,53.2,48.8,44.8,97,74,47,30.12,29.98,14,2,16,0.00
2013-6-4,70.5,61.4,55.1,62.0,57.8,51.0,93,88,50,30.09,29.97,18,3,19,0.14
2013-6-5,69.0,63.2,60.3,62.1,59.6,53.8,99,89,70,30.03,29.94,10,1,10,0.75
2013-6-6,70.0,60.5,53.0,58.5,54.1,51.0,94,81,58,29.98,29.92,12,2,14,0.00
2013-6-7,71.3,63.5,53.6,56.3,53.4,51.2,95,71,53,30.04,29.94,9,1,10,0.00
2013-6-8,74.0,63.1,50.4,61.8,56.2,49.2,97,80,56,29.96,29.78,18,2,19,0.11
2013-6-9,73.5,65.1,60.0,64.3,60.8,58.3,97,87,67,29.81,29.71,15,2,15,0.24
2013-6-10,79.7,65.8,58.5,66.1,61.4,57.8,99,87,60,29.92,29.76,8,1,8,0.00
2013-6-11,86.5,77.5,63.6,74.4,70.1,62.3,96,78,64,29.91,29.71,15,2,17,0.00
2013-6-12,90.5,77.1,65.5,75.2,69.4,58.6,95,78,57,29.86,29.64,23,3,23,0.15
2013-6-13,84.8,72.5,61.5,64.6,59.0,55.3,84,64,39,30.05,29.86,18,2,18,0.00
2013-6-14,75.1,67.7,63.7,66.3,61.4,57.7,98,81,64,30.10,29.86,20,2,21,1.75
2013-6-15,81.8,71.2,63.3,72.0,66.6,62.2,98,86,65,30.05,29.85,19,2,19,0.23
2013-6-16,87.9,76.5,66.5,70.4,62.7,51.1,95,68,32,29.97,29.90,10,1,10,0.00
2013-6-17,88.8,81.3,68.6,64.6,59.3,53.6,85,48,32,29.98,29.89,13,2,15,0.00
2013-6-18,85.0,74.7,62.6,62.9,58.8,53.6,85,59,41,30.00,29.94,11,1,11,0.00
2013-6-19,84.0,72.1,65.1,66.9,63.3,60.3,86,75,48,30.07,29.97,11,1,12,0.00
2013-6-20,87.3,78.3,66.9,70.6,66.4,61.9,85,68,53,30.03,29.89,19,4,19,0.00
2013-6-21,89.3,79.9,74.4,77.1,72.0,67.6,84,77,65,29.97,29.83,18,3,23,0.03
2013-6-22,91.7,82.6,73.7,76.2,72.2,66.1,85,71,57,29.99,29.82,15,2,15,0.00
2013-6-23,80.3,73.8,64.7,71.8,68.7,62.9,95,85,68,29.96,29.79,15,3,19,0.66
2013-6-24,78.3,71.5,67.6,74.0,68.7,65.0,97,91,78,30.00,29.81,15,2,28,0.45
2013-6-25,87.9,77.8,69.0,75.5,72.0,67.6,98,84,56,29.84,29.70,8,2,16,0.00
2013-6-26,91.0,81.8,73.6,78.5,71.2,64.7,92,72,44,29.83,29.65,16,2,17,0.00
2013-6-27,87.1,76.9,67.5,71.0,67.2,63.2,94,73,48,29.94,29.83,14,1,14,0.01
2013-6-28,86.0,77.9,70.4,64.3,59.3,54.0,80,55,34,29.88,29.75,23,4,24,0.00
2013-6-29,76.3,70.1,64.9,64.2,59.4,57.0,92,69,55,29.91,29.75,15,3,18,0.25
2013-6-30,80.0,68.9,58.8,59.5,54.7,49.3,89,63,40,30.08,29.91,9,1,16,0.00
2013-7-1,83.9,70.8,57.8,61.0,54.1,49.3,81,58,36,30.15,30.08,15,2,15,0.00
2013-7-2,85.0,69.3,58.2,66.7,59.1,53.8,94,72,36,30.14,30.02,19,1,26,0.11
2013-7-3,80.7,67.9,56.3,65.1,60.4,55.5,98,79,47,30.07,29.98,10,1,10,0.01
2013-7-4,85.0,72.2,60.4,64.4,61.1,59.0,96,71,44,30.05,29.94,13,1,13,0.00
2013-7-5,87.0,76.2,62.7,67.1,62.4,57.7,84,64,44,30.00,29.90,16,2,18,0.00
2013-7-6,90.3,78.8,66.9,70.0,65.6,60.7,81,65,44,29.96,29.85,16,2,16,0.00
2013-7-7,92.2,80.6,69.5,73.4,68.8,64.4,85,69,47,29.91,29.84,14,2,18,0.00
2013-7-8,82.8,77.5,76.1,72.4,69.9,68.0,85,78,67,29.93,29.89,7,1,7,0.00
2013-7-12,85.0,74.6,63.2,65.0,61.9,58.3,85,66,48,30.09,29.99,5,2,18,0.00
2013-7-13,78.4,71.5,64.4,67.7,62.1,56.3,78,72,66,30.06,30.00,5,3,16,0.00
2013-7-14,85.0,76.5,65.2,67.1,64.6,61.2,87,68,52,30.16,30.06,5,2,14,0.00
2013-7-15,88.6,78.0,66.9,73.6,69.0,62.9,87,75,60,30.23,30.13,5,2,17,0.00
2013-7-16,92.0,82.6,72.0,74.2,72.2,69.9,93,72,53,30.24,30.18,4,1,10,0.00
2013-7-17,94.8,84.2,72.5,75.4,72.1,70.0,92,69,46,30.28,30.15,3,1,11,0.00
2013-7-18,94.7,88.0,74.3,73.3,69.9,67.6,88,57,43,30.16,29.91,17,2,18,0.00
2013-7-19,94.8,84.6,76.2,74.5,69.2,64.1,77,61,38,29.92,29.80,12,2,13,0.00
2013-7-20,90.7,80.2,63.4,67.1,63.3,57.9,92,58,36,29.96,29.85,10,1,10,0.00
2013-7-21,77.4,71.6,65.6,69.8,66.3,61.8,92,84,71,29.92,29.80,15,1,15,0.12
2013-7-22,92.0,74.6,65.6,74.6,68.2,59.8,98,82,54,29.88,29.71,18,2,20,0.11
2013-7-23,78.8,68.9,62.5,65.8,61.6,57.7,94,78,56,30.00,29.79,7,1,8,0.00
2013-7-24,81.2,69.8,57.3,61.4,58.8,55.4,94,70,48,30.08,29.99,8,1,8,0.00
2013-7-25,85.0,74.0,60.9,68.3,63.9,58.7,93,72,50,30.07,29.95,17,2,17,0.00
2013-7-26,77.8,70.9,62.8,68.3,60.1,52.7,97,71,45,30.05,29.94,17,3,20,0.12
2013-7-27,70.8,62.3,53.1,54.0,49.4,46.2,90,65,43,30.10,30.01,15,2,15,0.00
2013-7-28,71.5,58.9,52.3,55.3,49.6,46.8,83,72,47,30.09,30.01,12,1,13,0.00
2013-7-29,73.9,65.1,53.9,61.0,56.8,51.4,94,76,59,30.15,30.07,11,2,11,0.00
2013-7-30,70.3,66.0,62.7,66.9,64.2,60.0,98,94,86,30.10,30.05,9,1,10,0.22
2013-7-31,83.8,68.8,63.4,66.7,64.5,63.0,99,88,54,30.14,30.01,5,0,11,0.00
2013-8-1,78.5,66.8,61.3,65.1,62.9,60.2,97,88,61,30.08,30.05,4,0,5,0.00
2013-8-2,83.7,72.4,65.3,69.2,63.5,56.1,91,75,55,30.07,29.88,16,1,19,0.00
2013-8-3,80.3,70.8,60.6,61.3,57.9,54.0,89,66,43,30.19,30.01,9,1,10,0.00
2013-8-4,80.8,70.2,56.6,61.1,58.3,54.1,95,68,47,30.21,30.05,13,2,14,0.00
2013-8-5,84.0,73.1,63.9,73.5,66.8,60.1,92,81,63,30.06,29.79,10,1,14,0.00
2013-8-6,89.9,79.0,67.8,75.3,70.5,63.8,98,77,57,29.90,29.75,14,2,16,0.00
2013-8-7,81.5,72.4,66.5,67.2,63.4,62.1,87,74,57,30.00,29.81,9,0,9,0.00
2013-8-8,82.5,70.8,58.7,64.5,61.2,55.8,92,73,49,30.03,29.96,8,1,8,0.00
2013-8-9,69.8,67.3,65.6,64.0,63.3,62.5,92,87,81,30.03,30.00,0,0,0,0.00
2013-8-10,82.8,76.2,61.3,64.4,61.3,53.6,91,61,48,30.21,30.02,9,1,9,0.00
2013-8-11,86.3,75.3,63.4,67.6,63.3,58.8,86,67,49,30.13,29.98,10,2,12,0.00
2013-8-12,84.0,73.0,64.3,68.9,63.4,57.1,97,75,44,30.05,29.97,13,1,13,0.16
2013-8-13,76.7,64.9,59.0,60.7,57.3,53.4,93,77,53,30.19,30.05,7,1,9,0.00
2013-8-14,76.1,65.6,53.9,55.5,51.9,46.0,90,64,39,30.25,30.14,10,1,11,0.00
2013-8-15,72.3,64.9,59.3,58.5,55.1,53.1,84,71,55,30.17,30.11,11,1,13,0.00
2013-8-16,59.2,56.3,53.4,54.3,52.8,51.2,93,88,84,30.18,30.15,4,0,4,0.00
2013-8-17,82.3,73.5,53.4,61.0,57.1,51.4,95,59,40,30.24,30.13,10,2,12,0.00
2013-8-18,83.0,70.4,56.6,62.5,58.6,54.1,93,68,46,30.19,30.07,13,1,13,0.00
2013-8-19,85.3,72.4,60.9,67.0,63.1,58.3,92,74,52,30.10,29.98,13,1,13,0.00
2013-8-20,89.3,77.5,67.2,70.9,66.5,62.2,86,70,51,30.01,29.92,14,2,18,0.00
2013-8-21,92.2,79.0,70.1,71.6,68.4,66.2,88,71,48,30.00,29.93,13,1,14,0.00
2013-8-22,81.6,77.2,73.3,71.0,68.9,67.3,84,76,69,30.09,29.97,9,1,11,0.00
2013-8-23,81.3,71.8,66.4,72.3,69.2,65.5,97,92,71,30.12,30.03,9,0,9,0.00
2013-8-24,91.8,87.4,77.5,74.7,72.7,70.6,84,62,51,30.12,30.04,15,2,19,0.00
2013-8-25,92.8,80.2,70.8,73.1,69.6,65.4,84,71,51,30.16,30.05,13,2,16,0.00
2013-8-26,96.8,85.8,71.9,74.7,71.2,69.0,91,64,42,30.10,29.93,14,2,14,0.00
2013-8-27,97.3,86.2,76.0,72.7,70.7,69.2,80,62,44,29.95,29.84,16,3,17,0.00
2013-8-28,98.8,85.4,72.6,70.4,68.0,65.8,80,58,36,29.97,29.89,10,1,10,0.00
2013-8-29,94.3,83.3,70.9,74.6,71.3,66.7,88,69,49,30.02,29.89,13,1,14,0.00
2013-8-30,102.5,88.6,72.7,78.7,72.3,65.7,92,63,32,29.90,29.74,15,1,15,0.00
2013-8-31,93.9,81.9,69.4,73.4,69.8,65.4,93,69,42,29.83,29.74,7,1,9,0.00
2013-9-1,82.8,74.6,64.8,70.7,63.9,58.2,94,71,46,29.95,29.72,16,2,17,0.08
2013-9-2,79.3,68.0,56.6,60.3,55.4,50.3,93,67,37,30.07,29.95,11,1,12,0.00
2013-9-3,82.3,61.6,50.8,60.0,54.9,49.7,97,80,41,30.15,30.03,6,0,7,0.00
2013-9-4,91.5,76.4,59.0,65.6,60.9,55.1,88,62,36,30.16,30.05,9,1,9,0.00
2013-9-5,90.5,79.0,68.2,68.8,66.0,63.4,90,67,43,30.18,30.09,8,1,9,0.00
2013-9-6,73.4,68.7,64.9,67.5,64.8,62.0,92,87,78,30.12,30.10,3,0,3,0.00
2013-9-8,88.1,81.4,71.4,74.8,72.9,69.3,93,76,64,29.92,29.80,13,3,14,0.00
2013-9-9,99.5,87.4,70.9,71.6,66.3,62.8,94,53,31,29.85,29.76,15,2,22,0.00
2013-9-10,97.1,84.1,71.6,68.5,65.3,62.2,74,55,36,29.98,29.85,17,2,23,0.00
2013-9-11,85.9,77.7,70.9,71.4,67.5,62.2,86,71,58,30.07,29.97,11,1,11,0.00
2013-9-12,79.2,70.4,59.8,64.1,53.4,45.1,83,58,32,30.19,30.05,14,2,17,0.00
2013-9-13,74.1,62.0,49.9,50.7,47.9,45.0,88,62,37,30.27,30.12,8,1,10,0.00
2013-9-14,75.9,63.3,46.9,50.7,45.5,42.6,86,55,34,30.16,29.93,13,2,16,0.00
2013-9-15,69.7,64.8,56.9,63.7,56.4,47.4,91,75,49,30.25,29.87,13,2,15,0.07
2013-9-16,63.4,57.8,53.4,54.9,53.2,51.6,95,85,70,30.39,30.25,12,2,14,0.00
2013-9-17,65.0,58.0,53.3,63.7,56.3,51.4,98,94,86,30.28,30.01,11,2,14,0.75
2013-9-18,89.5,76.3,64.6,72.5,68.3,63.1,96,78,55,30.02,29.75,17,3,17,0.00
2013-9-19,85.3,73.7,63.5,72.6,68.0,62.2,100,84,63,29.86,29.67,27,2,31,1.25
2013-9-20,68.2,60.5,53.7,65.1,53.1,45.6,99,77,58,30.01,29.86,16,2,17,0.00
2013-9-21,73.6,58.3,45.6,50.6,46.8,43.5,93,68,39,30.07,29.93,8,1,9,0.00
2013-9-22,77.3,63.2,49.9,57.0,51.8,46.3,88,68,47,30.01,29.89,14,2,15,0.00
2013-9-23,75.8,63.7,52.0,56.2,52.0,49.0,90,68,44,29.99,29.85,16,3,18,0.00
2013-9-24,73.8,64.1,54.1,61.5,55.0,49.8,86,73,59,29.91,29.85,14,3,16,0.00
2013-9-25,77.6,65.3,52.7,62.3,56.8,50.5,92,75,56,29.97,29.84,11,2,12,0.00
2013-9-26,83.0,70.2,59.1,65.1,60.9,55.8,94,74,51,29.95,29.86,16,3,20,0.00
2013-9-27,84.8,73.8,64.5,66.5,62.9,60.8,90,71,46,29.98,29.86,15,3,19,0.00
2013-9-28,68.9,61.8,50.8,65.4,57.9,49.0,95,87,72,30.07,29.79,18,2,18,0.27
2013-9-29,74.2,59.0,44.3,53.8,48.3,43.8,98,72,38,30.11,29.95,11,1,12,0.01
2013-9-30,58.2,51.5,49.3,52.6,48.5,47.4,94,89,79,29.96,29.90,7,0,8,0.00
2013-10-1,82.5,71.8,58.1,61.5,57.4,48.7,92,62,42,29.98,29.85,8,1,11,0.00
2013-10-2,84.0,70.3,58.1,66.6,57.7,48.2,89,65,50,30.04,29.86,13,2,15,0.00
2013-10-3,77.7,70.2,64.7,68.5,64.9,63.2,98,84,62,29.87,29.76,9,0,12,0.13
2013-10-4,76.7,68.6,62.0,71.8,66.2,60.8,98,92,78,29.91,29.74,27,2,27,1.96
2013-10-5,70.5,55.2,48.1,68.2,43.7,36.2,93,66,48,29.95,29.80,16,2,17,0.01
2013-10-6,49.4,46.2,41.9,47.4,41.7,36.1,96,85,65,29.96,29.77,13,1,14,0.21
2013-10-7,73.7,56.8,41.5,49.4,45.0,39.3,94,68,36,30.09,29.95,10,1,13,0.00
2013-10-8,75.8,61.5,47.7,51.0,47.9,44.6,89,64,36,30.10,30.00,16,2,21,0.00
2013-10-9,74.8,61.6,50.8,53.9,50.0,47.7,90,68,41,30.13,30.05,13,2,15,0.00
2013-10-10,77.3,62.0,48.0,57.9,50.5,44.9,90,68,40,30.10,29.91,12,1,13,0.00
2013-10-11,72.3,64.6,55.0,64.0,58.6,51.7,93,81,70,29.92,29.75,18,3,21,0.00
2013-10-12,67.3,57.1,46.2,62.9,42.2,35.2,88,60,33,30.28,29.82,14,2,16,0.00
2013-10-13,66.3,51.7,38.1,41.3,37.2,32.9,86,61,33,30.50,30.28,8,0,8,0.00
2013-10-14,64.8,53.9,41.8,48.6,40.1,34.6,77,61,42,30.40,29.85,21,4,25,0.01
2013-10-15,60.1,51.5,46.5,57.3,46.1,41.3,95,82,66,29.98,29.80,17,4,25,0.46
2013-10-16,49.7,46.2,40.9,43.8,41.9,38.8,94,85,76,30.06,29.98,12,2,15,0.00
2013-10-17,62.2,46.7,36.7,44.7,39.2,35.6,97,79,39,30.01,29.87,11,1,11,0.00
2013-10-20,61.1,54.7,44.5,46.2,42.7,36.0,81,64,39,29.99,29.75,13,2,17,0.00
2013-10-21,49.4,41.9,35.4,37.1,30.9,23.9,84,66,43,30.12,29.98,14,2,17,0.00
2013-10-22,42.6,39.2,35.4,39.6,35.4,27.9,94,86,69,30.14,29.92,10,1,10,0.06
2013-10-23,42.4,36.6,30.2,35.8,31.5,27.5,93,82,61,30.22,30.12,10,1,10,0.04
2013-10-24,36.7,33.7,31.1,29.0,27.6,24.6,87,79,63,30.39,30.22,11,2,11,0.00
2013-11-2,64.9,64.8,64.8,63.4,63.3,63.3,95,95,95,30.92,30.90,1,1,7,0.00
2013-11-6,75.7,75.7,75.6,69.4,69.2,69.1,81,80,80,30.14,30.13,2,1,5,0.00